Track STARLINK-3892 now! 10-day predictions STARLINK-3892 is classified as:
1 52488U 22049AP 22180.58334491 -.00658853 00000-0 -12347-1 0 9999 2 52488 53.2177 359.0946 0001562 42.5975 246.5622 15.50473801 1301